Theta_e
292 290 287 288 289 288 287 283 282 283 287 286 286 287 291 291 285 285 284 283 284 285 284 283 282 281 281 281 282 282 282 283 283 281 280 280 279 279 279 280 281 281 281 281
289 287 290 291 289 286 284 282 282 285 285 286 285 285 288 291 288 287 287 284 284 285 280 282 281 280 281 281 282 282 282 282 282 281 281 280 279 279 279 280 280 280 280 280
287 289 291 289 286 285 283 282 282 283 283 283 281 280 283 287 287 287 287 288 286 285 282 281 281 280 280 280 281 282 282 282 282 282 281 280 279 278 277 277 277 279 279 279
289 289 288 286 286 286 282 284 283 282 280 278 282 279 281 287 287 285 286 284 285 284 284 282 281 280 279 280 280 282 282 282 283 281 279 277 276 276 276 276 277 278 278 278
289 286 285 285 286 286 284 283 281 280 278 275 277 275 279 280 283 288 288 285 285 283 283 282 282 282 281 281 280 280 280 281 281 281 279 277 276 276 276 275 275 275 276 277
288 287 286 286 285 285 285 282 280 277 276 272 279 278 277 279 283 284 284 283 283 282 281 282 282 281 281 280 280 279 279 280 280 279 278 276 275 274 275 275 274 275 275 276
285 285 285 287 284 284 282 281 277 274 272 276 276 274 283 284 286 286 286 283 281 280 279 280 279 280 280 279 279 279 279 279 279 278 277 276 275 274 274 274 273 274 274 274
282 282 284 286 286 284 281 283 278 270 270 278 275 275 282 284 286 283 280 280 281 278 279 280 280 280 279 279 279 278 279 278 277 277 276 275 275 274 273 273 273 273 273 274
282 282 282 283 283 284 281 279 281 277 263 268 278 279 282 284 282 281 279 280 280 277 278 279 279 280 279 278 278 278 277 277 276 276 275 274 273 273 272 272 273 273 273 275
287 283 281 280 281 279 280 282 277 276 270 266 276 277 281 285 285 284 279 278 279 277 277 278 279 279 278 278 278 277 276 276 275 275 274 274 273 272 272 272 272 272 273 273
287 286 281 280 279 279 277 277 277 279 276 271 269 279 282 285 286 285 282 280 279 278 278 278 279 279 278 277 277 276 275 275 274 274 273 272 272 272 271 271 271 272 272 273
287 285 283 283 277 278 279 280 281 278 275 271 272 280 284 285 285 284 281 281 278 278 278 278 279 278 277 276 275 274 274 273 273 272 272 271 271 271 270 270 271 272 271 272
286 283 277 279 278 278 277 279 280 279 278 275 273 280 283 283 282 281 279 279 278 277 276 277 277 277 276 275 274 273 272 271 271 270 270 270 269 269 269 270 270 271 271 270
292 284 282 281 282 280 277 278 280 282 279 279 279 282 287 289 289 291 286 279 278 277 277 277 277 276 275 275 273 271 270 269 270 269 268 268 268 269 269 270 270 270 269 268
287 283 284 286 287 280 280 281 280 278 281 279 283 282 286 289 290 291 292 285 278 276 276 277 277 275 274 272 272 271 269 269 269 268 267 268 268 269 269 269 269 268 268 268
282 283 284 282 285 282 281 284 284 280 282 281 282 282 290 293 293 292 291 289 279 277 277 278 277 276 274 274 271 272 269 267 268 267 268 268 268 268 268 267 267 266 266 266
277 279 274 279 283 279 276 282 285 286 287 284 279 285 290 289 289 290 290 284 281 279 278 277 277 276 274 272 272 268 267 267 267 267 267 267 266 266 265 265 265 264 264 265
277 277 278 279 275 273 284 289 287 285 287 288 288 289 291 290 292 282 286 282 280 278 277 277 276 273 271 269 268 267 268 267 267 266 265 265 264 264 263 263 263 263 264 264
287 283 280 277 278 281 283 285 282 281 284 289 287 289 290 291 279 284 279 280 281 278 278 277 274 270 268 267 267 266 266 265 264 263 263 263 263 261 261 260 261 263 263 263
287 287 284 281 276 274 283 288 286 284 280 291 290 290 289 280 279 287 280 277 276 277 275 272 270 268 267 266 266 265 264 263 262 262 262 262 262 260 259 260 261 262 262 263
278 281 279 280 279 282 288 280 283 278 283 289 290 290 289 282 286 279 275 273 274 273 271 269 269 267 266 266 265 264 263 261 261 261 261 260 260 259 259 261 261 261 261 262
282 279 278 279 277 277 289 283 282 289 293 287 284 284 283 283 277 275 274 272 271 270 270 269 267 265 265 265 265 263 262 261 260 259 258 258 257 258 261 258 259 260 260 260
282 286 284 283 282 286 286 291 292 293 293 284 283 282 282 278 275 274 272 271 270 270 269 268 266 264 264 264 264 262 260 260 259 255 255 255 258 259 259 258 259 259 260 261
287 290 286 286 288 289 288 287 291 292 290 285 282 281 280 277 275 274 273 271 270 270 268 267 265 263 261 262 262 261 259 258 254 251 256 259 258 257 259 260 260 259 260 261
289 287 287 287 289 291 292 292 291 286 285 282 280 281 280 279 275 274 273 271 270 269 267 267 266 264 261 261 259 259 257 256 256 256 257 257 257 256 258 259 258 261 263 265
291 288 285 285 291 290 292 295 294 289 283 283 281 278 280 279 277 275 273 272 270 268 267 266 265 262 260 260 258 256 254 254 253 255 255 255 255 256 257 256 257 262 265 267
Wind_Speed
3 3 7 10 8 3 3 4 8 6 5 4 9 14 22 9 11 16 14 15 17 20 10 12 11 8 7 6 7 7 6 5 4 3 3 3 3 3 3 4 5 5 5 6
3 10 7 4 4 4 3 4 9 8 1 6 11 16 15 19 12 15 16 17 20 16 13 16 13 9 9 9 9 7 6 5 4 2 3 3 3 4 4 4 5 5 5 6
8 3 6 5 4 4 5 6 5 7 5 5 8 9 8 8 6 7 10 12 16 20 19 16 15 13 9 9 9 7 6 5 4 5 3 2 3 3 2 4 4 4 5 6
7 2 7 4 6 9 5 5 3 4 5 5 4 14 4 9 12 7 9 12 15 17 16 17 19 14 10 10 8 8 7 4 4 5 2 2 3 4 4 4 4 5 6 7
9 8 5 5 8 8 7 2 2 1 2 3 5 6 8 3 9 21 10 13 13 16 19 21 20 16 10 8 8 7 7 4 4 4 4 3 5 4 5 3 6 6 6 7
7 2 6 7 2 3 4 2 4 4 2 2 7 9 5 7 11 9 6 6 9 11 14 13 14 12 9 7 7 6 7 4 3 3 4 4 6 7 6 8 8 7 7 7
2 6 2 3 4 2 3 6 5 6 3 11 4 3 13 8 14 11 10 7 9 9 12 13 17 15 10 9 9 7 7 5 4 4 4 5 6 7 7 9 8 10 9 8
6 10 9 6 7 8 7 9 8 9 5 15 1 12 10 13 11 7 7 8 7 9 12 15 16 14 11 9 8 7 7 5 4 3 5 5 6 4 5 7 8 9 10 10
7 9 2 2 2 3 5 6 2 4 3 4 7 10 8 10 12 9 10 7 10 10 12 14 13 12 9 8 8 9 7 4 3 4 5 6 6 6 7 10 10 9 11 11
5 6 1 1 2 3 4 4 5 2 4 8 13 17 15 14 11 11 8 10 9 8 10 11 13 12 8 7 7 7 5 3 2 4 5 5 6 7 8 9 12 12 13 15
5 3 1 4 11 13 4 4 1 2 6 7 6 16 6 8 10 11 10 11 10 12 12 12 12 10 9 7 7 6 4 1 3 4 5 6 7 8 8 10 11 12 14 15
8 5 9 16 2 4 3 8 11 8 8 3 3 31 3 6 8 8 8 10 8 10 12 12 13 12 9 8 7 6 4 3 3 4 5 6 8 8 10 11 12 13 15 15
11 5 4 9 3 2 8 9 6 2 1 13 8 29 4 7 7 9 9 9 9 10 9 11 12 13 10 8 7 6 5 3 3 3 4 7 8 8 10 12 13 14 15 15
14 8 13 20 13 7 7 12 17 22 17 13 34 31 47 19 23 27 14 11 12 13 15 15 13 13 9 8 7 6 5 3 3 3 4 7 8 9 10 12 13 14 14 15
9 14 13 24 29 6 8 17 17 22 31 21 35 29 45 26 27 30 15 9 9 12 14 18 17 13 10 9 7 6 3 2 1 3 4 6 8 10 11 12 12 13 14 14
5 14 12 23 23 10 10 35 17 25 33 24 31 40 35 28 29 28 26 15 12 14 18 16 15 15 13 11 8 6 3 0 1 2 5 7 9 9 11 12 13 14 15 15
9 6 4 24 11 7 10 31 32 32 34 26 30 47 35 31 29 26 21 11 12 14 14 17 19 16 12 10 9 7 4 2 1 3 5 6 8 9 12 12 13 14 15 16
9 7 6 15 5 17 27 25 17 22 33 29 32 34 36 29 30 5 11 11 12 11 15 17 15 12 10 8 6 5 4 1 2 4 5 6 8 10 11 12 13 14 14 16
19 11 12 12 18 25 26 23 8 10 30 24 20 30 32 25 7 17 12 10 13 16 15 14 13 11 11 9 7 6 3 2 2 4 6 8 9 9 11 12 14 14 15 15
18 20 20 17 17 23 30 35 9 5 25 47 28 31 24 7 7 21 7 8 8 12 14 16 15 13 12 8 7 6 4 2 2 5 8 9 9 8 10 12 14 14 14 15
5 10 23 24 23 16 27 11 5 11 35 9 15 21 15 13 14 2 10 8 10 11 16 16 14 12 11 9 7 6 4 2 3 5 7 8 9 9 9 11 12 13 13 14
19 11 10 10 13 23 10 8 25 35 27 10 6 7 13 11 7 8 10 14 16 17 17 14 14 12 10 9 7 7 4 2 3 5 6 7 8 8 8 11 11 11 12 13
18 22 17 15 10 7 10 25 30 30 29 10 6 7 9 10 8 12 12 15 15 17 15 13 14 14 9 8 6 7 4 3 4 5 5 5 8 8 9 9 12 9 10 11
15 16 18 18 21 25 22 19 20 20 30 9 8 10 14 11 14 11 15 15 15 14 14 12 14 12 11 8 7 6 5 4 3 2 4 6 7 10 9 7 7 9 9 10
17 10 20 22 26 25 28 29 29 17 11 13 8 12 18 14 16 19 15 16 14 15 13 13 11 11 11 10 8 6 5 4 3 4 4 5 5 6 9 9 7 8 9 14
19 23 17 19 27 23 32 33 22 18 22 20 15 8 14 17 19 17 17 16 17 16 14 12 12 12 11 9 8 7 5 4 4 4 4 4 5 6 6 6 9 14 18 22
Wind_Direction
6 97 205 219 196 181 180 201 236 243 243 236 236 248 271 251 219 237 222 209 215 215 192 186 185 181 175 181 177 179 174 207 185 213 256 280 267 272 247 268 283 313 320 325
43 237 211 131 140 170 185 235 260 284 299 189 264 254 264 262 246 227 226 216 216 206 189 191 186 181 183 184 193 187 192 201 204 182 213 220 246 270 263 275 288 306 299 299
174 214 114 145 162 181 220 197 237 236 328 248 306 261 233 273 262 246 230 223 215 207 201 193 190 191 188 192 191 191 196 211 211 214 221 251 259 265 248 249 265 259 278 279
234 210 175 173 215 156 245 208 237 273 23 249 22 292 246 246 288 240 227 211 213 204 202 194 191 192 187 202 187 189 194 205 227 210 223 220 235 269 239 274 279 286 266 267
241 170 173 189 214 166 227 132 156 103 212 6 234 268 253 26 267 268 262 228 217 204 196 193 190 188 190 183 188 193 194 214 240 232 214 239 265 247 272 285 278 266 271 259
251 324 178 207 86 155 127 90 69 62 78 277 227 192 217 185 211 251 255 234 211 203 204 196 187 173 183 180 178 187 200 232 248 256 266 265 275 286 300 309 304 306 298 288
273 211 176 152 112 40 93 67 319 326 351 244 142 213 254 235 235 228 257 260 220 195 188 185 183 180 177 178 188 187 195 227 249 268 283 285 275 280 290 297 301 295 291 282
188 278 179 176 194 180 174 171 169 232 232 285 250 245 264 231 261 250 240 255 236 195 193 194 189 178 179 181 181 186 189 233 261 296 292 284 284 275 278 286 282 281 283 286
175 265 97 49 90 113 180 193 170 83 124 335 232 271 282 266 268 264 259 240 237 199 193 192 181 177 173 176 185 183 189 222 264 292 286 285 276 275 280 282 280 285 287 292
236 289 63 101 109 30 175 170 83 5 261 265 263 275 252 242 250 245 243 233 240 196 196 194 187 171 170 177 180 168 172 215 275 284 272 277 282 275 277 286 288 288 290 292
143 145 250 129 205 173 143 218 85 157 162 204 285 271 207 213 212 229 230 227 220 202 197 194 188 170 173 170 163 164 167 200 271 266 269 274 284 287 290 290 290 290 290 292
192 157 233 237 360 342 281 204 174 193 228 232 129 270 233 180 189 223 228 232 222 205 194 186 182 168 171 171 162 166 157 227 249 260 273 295 292 295 296 291 292 296 294 293
177 215 259 284 52 6 220 199 223 308 129 206 184 259 110 200 226 232 224 227 221 199 183 180 177 181 174 165 166 161 182 236 266 275 290 293 301 300 291 296 298 298 296 298
165 179 193 232 230 129 185 218 217 220 243 232 233 261 269 263 273 277 265 230 216 202 191 190 183 184 165 160 162 172 194 213 264 281 305 304 300 299 300 298 298 296 300 305
174 236 225 245 256 177 207 241 211 212 235 230 254 245 256 261 262 269 277 241 200 195 194 197 189 169 160 157 163 172 178 208 296 324 306 298 301 302 298 298 299 305 309 304
196 242 253 258 257 194 244 254 233 224 243 249 258 263 260 274 277 278 275 265 215 203 207 194 178 163 169 163 164 159 164 115 330 295 299 303 302 309 302 308 314 314 307 305
172 185 186 250 254 124 260 243 238 251 249 233 246 254 278 272 265 265 269 217 217 210 192 181 177 164 158 154 148 157 146 113 289 309 293 294 309 309 313 315 317 311 311 305
188 198 193 251 87 227 251 265 227 233 256 242 245 259 260 260 270 218 226 204 208 185 178 177 163 143 133 122 113 108 107 107 353 306 312 315 319 317 319 319 314 314 309 313
219 210 239 231 231 256 286 252 172 185 266 251 229 246 253 261 342 273 219 207 201 184 175 160 139 124 121 120 111 99 98 55 329 328 334 329 330 317 324 317 316 310 313 309
229 230 237 238 241 242 248 271 172 108 270 263 216 243 244 128 244 260 157 167 147 139 139 133 121 118 115 123 116 126 111 94 351 348 336 329 327 317 316 312 307 313 307 307
160 209 225 236 244 246 253 131 139 189 252 142 193 220 221 197 216 95 105 83 117 130 128 117 119 121 121 123 130 117 129 94 348 348 336 330 324 314 305 308 311 307 308 309
216 188 211 232 253 256 200 153 207 238 256 238 184 188 191 209 143 136 134 141 137 132 128 127 120 119 124 130 130 135 120 63 23 357 338 328 310 307 315 310 306 310 311 312
234 209 217 198 208 230 199 222 223 241 249 226 189 185 191 165 174 155 153 147 145 141 138 135 128 127 130 128 136 139 131 69 32 352 330 314 313 318 314 313 311 319 319 320
223 226 225 243 243 248 240 246 242 225 231 206 190 176 170 173 158 156 150 151 149 146 141 133 132 134 136 144 135 125 115 83 50 324 349 340 333 318 317 318 322 319 322 323
218 168 218 244 248 248 254 249 237 224 217 206 186 178 187 165 170 158 159 159 153 142 142 143 142 138 148 149 137 119 99 92 55 32 7 344 322 318 314 321 322 324 324 333
209 214 207 224 226 215 246 251 234 220 211 207 180 195 193 177 167 160 161 159 151 147 146 143 142 142 150 147 138 125 114 102 80 56 17 336 320 319 319 322 322 333 344 346